Stations météo

réclame
Mon MeteoGroup
Stockholm/Arlanda, Suède (2460): Température de l'air & dewpoint: 18.10.2018 00:00:00 - 24.10.2018 00:00:00 (CEST)Stockholm/Arlanda, Suède (2460): Vitesse du vent: 18.10.2018 00:00:00 - 24.10.2018 00:00:00 (CEST)Stockholm/Arlanda, Suède (2460): Direction du vent: 18.10.2018 00:00:00 - 24.10.2018 00:00:00 (CEST)Stockholm/Arlanda, Suède (2460): reduced air pressure: 18.10.2018 00:00:00 - 24.10.2018 00:00:00 (CEST)Stockholm/Arlanda, Suède (2460): visibility: 18.10.2018 00:00:00 - 24.10.2018 00:00:00 (CEST)
Date & Time tt [°C] td [°C] ff [km/h] ff [knt] dd ppp [hPa] vv [km]
24.10.2018 00:00:00 3,6 1,6 22 12 NNW 992,7 30
23.10.2018 23:00:00 3,9 1,6 18 10 NNW 992,1 50
23.10.2018 22:00:00 3,8 1,5 18 10 NW 991,5 50
23.10.2018 21:00:00 3,6 1,5 18 10 NNW 990,8 50
23.10.2018 20:00:00 3,3 1,3 11 6 NW 990,5 50
23.10.2018 19:00:00 3,9 1,6 14 8 NNW 990,3 50
23.10.2018 18:00:00 4,6 2,3 18 10 NW 989,8 50
23.10.2018 17:00:00 4,7 2,6 14 8 NNW 989,4 50
23.10.2018 16:00:00 4,8 2,8 18 10 NNW 989,0 50
23.10.2018 15:00:00 4,8 3,6 18 10 NW 988,4 5
23.10.2018 14:00:00 5,8 3,6 18 10 NNW 988,1 50
23.10.2018 13:00:00 6,0 5,0 14 8 NNW 987,8 35
23.10.2018 12:00:00 5,7 4,7 18 10 NNW 987,6 30
23.10.2018 11:00:00 6,4 5,7 14 8 NW 987,1 45
23.10.2018 10:00:00 6,3 6,2 7 4 NW 987,1 11
23.10.2018 09:00:00 6,1 5,8 4 2 W 987,5 2,5
23.10.2018 08:00:00 5,9 5,6 7 4 S 988,2 5
23.10.2018 07:00:00 5,8 5,4 11 6 S 989,2 11
23.10.2018 06:00:00 5,7 5,3 14 8 S 991,3 13
23.10.2018 05:00:00 5,6 5,0 22 12 S 993,6 11
23.10.2018 04:00:00 5,6 4,7 25 14 S 996,1 12
23.10.2018 03:00:00 5,6 4,4 18 10 S 999,3 15
23.10.2018 02:00:00 6,4 3,4 14 8 SSW 1001,7 17
23.10.2018 01:00:00 6,6 2,9 14 8 S 1004,1 50
23.10.2018 00:00:00 6,6 2,7 14 8 SSW 1005,9 45
22.10.2018 23:00:00 6,9 2,0 11 6 SW 1007,3 50
22.10.2018 22:00:00 6,8 0,9 14 8 WSW 1008,6 50
22.10.2018 21:00:00 6,5 -0,3 11 6 WSW 1009,6 50
22.10.2018 20:00:00 6,6 -1,1 14 8 WSW 1010,6 50
22.10.2018 19:00:00 6,7 -1,0 14 8 WSW 1011,2 50
22.10.2018 18:00:00 6,8 -0,7 14 8 WSW 1011,5 45
22.10.2018 17:00:00 8,6 -1,2 14 8 WSW 1011,4 50
22.10.2018 16:00:00 9,5 -1,6 22 12 W 1011,1 50
22.10.2018 15:00:00 9,7 -0,8 18 10 W 1010,6 50
22.10.2018 14:00:00 9,7 -0,2 25 14 W 1010,7 50
22.10.2018 13:00:00 9,5 0,9 25 14 W 1010,8 50
22.10.2018 12:00:00 9,4 2,0 22 12 W 1010,8 45
22.10.2018 11:00:00 9,1 3,5 22 12 W 1010,5 45
22.10.2018 10:00:00 8,6 3,8 14 8 W 1010,7 45
22.10.2018 09:00:00 7,7 4,1 14 8 WSW 1010,7 50
22.10.2018 08:00:00 7,3 5,1 14 8 WSW 1010,3 50
22.10.2018 07:00:00 7,6 6,2 11 6 SW 1009,7 50
22.10.2018 06:00:00 7,8 6,4 7 4 W 1009,6 50
22.10.2018 05:00:00 8,8 7,4 11 6 W 1009,4 50
22.10.2018 04:00:00 10,0 8,4 14 8 W 1009,0 50
22.10.2018 03:00:00 10,5 8,9 14 8 W 1008,3 50
22.10.2018 02:00:00 14,2 11,4 25 14 WSW 1007,1 50
22.10.2018 01:00:00 14,1 11,4 29 16 SW 1007,1 45
22.10.2018 00:00:00 13,7 11,0 25 14 SSW 1007,6 50
21.10.2018 23:00:00 13,4 10,9 22 12 SSW 1008,5 50
21.10.2018 22:00:00 13,1 10,8 25 14 SW 1009,8 50
21.10.2018 21:00:00 12,9 10,6 29 16 SSW 1010,7 50
21.10.2018 20:00:00 12,7 10,8 25 14 SSW 1011,8 50
21.10.2018 19:00:00 12,2 10,6 18 10 SSW 1012,7 50
21.10.2018 18:00:00 11,7 10,4 22 12 SSW 1013,3 45
21.10.2018 17:00:00 11,1 10,3 22 12 SSW 1014,2 29
21.10.2018 16:00:00 10,6 9,8 22 12 SSW 1014,9 7
21.10.2018 15:00:00 10,1 9,3 18 10 SSW 1015,3 10
21.10.2018 14:00:00 9,5 8,7 25 14 SSW 1016,0 5
21.10.2018 13:00:00 9,0 8,2 18 10 SSW 1016,9 6
21.10.2018 12:00:00 8,2 7,1 18 10 SSW 1017,8 8
21.10.2018 11:00:00 8,4 7,2 22 12 SSW 1018,3 30
21.10.2018 10:00:00 7,3 5,9 14 8 SSW 1018,9 35
21.10.2018 09:00:00 6,2 4,8 14 8 SSW 1018,9 50
21.10.2018 08:00:00 4,9 4,8 14 8 S 1019,4 21
21.10.2018 07:00:00 4,5 4,4 11 6 S 1020,1 22
21.10.2018 06:00:00 4,6 4,6 14 8 S 1020,8 9
21.10.2018 05:00:00 4,8 4,7 11 6 S 1021,2 3,1
21.10.2018 04:00:00 5,4 5,3 11 6 S 1021,6 17
21.10.2018 03:00:00 5,4 5,3 7 4 SSW 1021,9 18
21.10.2018 02:00:00 4,6 4,6 4 2 SSW 1022,4 8
21.10.2018 01:00:00 5,0 5,0 7 4 SW 1022,5 12
21.10.2018 00:00:00 5,2 5,1 11 6 SSW 1022,6 13
20.10.2018 23:00:00 5,4 5,3 7 4 WSW 1022,7 0,7
20.10.2018 22:00:00 5,5 5,5 7 4 WSW 1022,8 0,2
20.10.2018 21:00:00 5,2 5,1 7 4 W 1022,9 0,1
20.10.2018 20:00:00 4,8 4,7 4 2 W 1022,7 18
20.10.2018 19:00:00 4,9 4,6 0 0 N 1022,4 3,7
20.10.2018 18:00:00 7,6 6,5 4 2 S 1022,1 50
20.10.2018 17:00:00 9,3 6,6 7 4 S 1021,5 45
20.10.2018 16:00:00 9,9 6,8 7 4 SSW 1021,4 45
20.10.2018 15:00:00 9,8 6,7 7 4 WSW 1021,6 50
20.10.2018 14:00:00 9,1 7,5 11 6 WSW 1021,2 45
20.10.2018 13:00:00 8,1 7,5 11 6 W 1021,3 40
20.10.2018 12:00:00 7,7 6,6 4 2 WSW 1021,2 45
20.10.2018 11:00:00 7,6 6,2 4 2 SE 1021,1 40
20.10.2018 10:00:00 5,6 5,3 0 0 N 1020,9 18
20.10.2018 09:00:00 5,2 4,9 0 0 N 1020,4 10
20.10.2018 08:00:00 3,9 3,0 0 0 N 1019,9 40
20.10.2018 07:00:00 4,3 3,9 0 0 N 1019,8 35
20.10.2018 06:00:00 3,3 2,9 4 2 SW 1019,8 30
20.10.2018 05:00:00 3,1 2,5 0 0 N 1019,7 45
20.10.2018 04:00:00 3,0 2,6 4 2 SSE 1019,9 40
20.10.2018 03:00:00 2,1 1,8 0 0 N 1020,3 28
20.10.2018 02:00:00 1,4 1,1 0 0 N 1020,7 50
20.10.2018 01:00:00 0,9 0,3 0 0 N 1021,0 50
20.10.2018 00:00:00 0,5 -0,2 0 0 N 1021,0 35
19.10.2018 23:00:00 0,8 0,2 0 0 N 1021,0 45
19.10.2018 22:00:00 1,7 0,8 4 2 S 1021,5 50
19.10.2018 21:00:00 2,7 1,5 4 2 S 1021,7 50
19.10.2018 20:00:00 5,0 2,0 4 2 S 1021,6 50
19.10.2018 19:00:00 3,0 1,0 4 2 W 1021,5 50
19.10.2018 18:00:00 4,7 1,7 4 2 WSW 1021,7 50
19.10.2018 17:00:00 7,9 1,1 0 0 N 1021,6 50
19.10.2018 16:00:00 9,9 0,5 7 4 WSW 1021,8 50
19.10.2018 15:00:00 10,6 0,6 7 4 W 1022,2 45
19.10.2018 14:00:00 10,6 1,1 7 4 WNW 1022,6 45
19.10.2018 13:00:00 7,7 3,5 4 2 SW 1022,8 50
19.10.2018 12:00:00 7,7 3,5 4 2 SW 1022,8 50
19.10.2018 11:00:00 4,5 3,0 4 2 SW 1022,9 50
19.10.2018 10:00:00 3,0 2,7 0 0 N 1022,9 45
19.10.2018 09:00:00 -0,7 -1,1 0 0 N 1022,7 30
19.10.2018 08:00:00 -1,9 -2,0 0 0 N 1022,4 45
19.10.2018 07:00:00 -2,5 -2,9 0 0 N 1022,2 40
19.10.2018 06:00:00 -1,7 -1,8 0 0 N 1022,0 24
19.10.2018 05:00:00 -1,7 -1,8 0 0 N 1021,8 35
19.10.2018 04:00:00 -1,1 -1,2 0 0 N 1021,5 40
19.10.2018 03:00:00 -0,1 -0,2 0 0 N 1021,7 30
19.10.2018 02:00:00 -0,3 -0,4 0 0 N 1021,6 35
19.10.2018 01:00:00 0,4 0,1 4 2 S 1021,6 18
19.10.2018 00:00:00 2,6 2,3 0 0 N 1021,4 1,3
18.10.2018 23:00:00 2,7 2,4 0 0 N 1021,1 28
18.10.2018 22:00:00 3,3 3,0 0 0 N 1020,4 35
18.10.2018 21:00:00 3,1 2,2 4 2 NE 1020,0 50
18.10.2018 20:00:00 5,6 4,7 0 0 N 1019,5 50
18.10.2018 19:00:00 7,1 5,6 0 0 N 1019,0 50
18.10.2018 18:00:00 9,0 5,6 7 4 N 1018,5 50
18.10.2018 17:00:00 12,3 2,2 7 4 WNW 1017,4 50
18.10.2018 16:00:00 13,4 2,9 7 4 WNW 1016,6 45
18.10.2018 15:00:00 13,6 5,0 14 8 WNW 1016,1 50
18.10.2018 14:00:00 13,1 5,5 18 10 W 1015,4 40
18.10.2018 13:00:00 12,6 6,6 18 10 W 1015,4 45
18.10.2018 12:00:00 12,6 7,7 14 8 WNW 1015,1 40
18.10.2018 11:00:00 11,8 9,7 11 6 W 1015,0 35
18.10.2018 10:00:00 11,5 10,6 11 6 SW 1014,9 20
18.10.2018 09:00:00 11,5 10,7 11 6 SW 1014,7 15
18.10.2018 08:00:00 11,9 10,6 11 6 SW 1014,5 14
18.10.2018 07:00:00 12,3 10,9 11 6 SW 1014,4 15
18.10.2018 06:00:00 12,3 11,2 11 6 SW 1014,3 12
18.10.2018 05:00:00 12,2 11,1 11 6 SSW 1014,4 10
18.10.2018 04:00:00 12,4 11,1 7 4 SW 1014,7 12
18.10.2018 03:00:00 12,9 11,5 7 4 SSW 1015,1 15
18.10.2018 02:00:00 13,2 11,4 11 6 SSW 1015,5 21
18.10.2018 01:00:00 13,1 11,2 11 6 SW 1015,6 30
18.10.2018 00:00:00 12,8 10,9 11 6 SSW 1015,7 30

tt = Température de l'air
td = dewpoint
ff = Vitesse du vent
dd = Direction du vent
ppp = reduced air pressure
vv = visibility

stations d'obs. à proximité